Flag for U.S.A. Weather past 2 weeks in Spokane, Washington, U.S.A.

Now
69 °F

Clear.


Feels Like: 69 °F
Forecast: 59 / 82 °F
Wind: 9 mph from Southwest

Location: Felts Field

Current Time: Aug 5, 2015 at 4:01:25 AM

Latest Report: Aug 5, 2015 at 2:53 AM


Visibility: 10 mi

Pressure: 29.79 "Hg (27.88 "Hg at 569m altitude)

Humidity: 35%

Dew point: 40 °F

Location of SpokaneLocation

Historic Weather in Spokane — Graph

°F

Spokane temperature yesterday

Maximum temperature yesterday: 89 °F (at 3:53 PM)
Minimum temperature yesterday: 66 °F (at 3:53 AM)
Average temperature yesterday: 77 °F

Past Weeks' High & Low Weather Summary

 TemperatureHumidityPressure
High101 °F (Jul 31, 3:53 PM)77% (Jul 28, 5:53 AM)30.20 "Hg (Jul 28, 5:53 AM)
Low52 °F (Jul 28, 5:53 AM)6% (Jul 31, 6:53 PM)29.67 "Hg (Jul 21, 11:53 PM)
Average73 °F34%29.91 "Hg
* Reported Jul 21 2:53 AM — Aug 5 2:53 AM, Spokane, Weather by CustomWeather, © 2015

Note: Actual official high and low records may vary slightly from our data, if they occured in-between our weather recording intervals... More about our weather records

Advertising

Spokane weather history for previous 24 hours

 ConditionsComfort  
Time TempWeatherWind HumidityBarometerVisibility
2:53 AM
Wed, Aug 5
69 °FClear.9 mph35%29.79 "Hg10 mi
1:53 AM70 °FClear.No wind37%29.78 "Hg10 mi
12:53 AM68 °FClear.5 mph42%29.78 "Hg10 mi
11:53 PM
Tue, Aug 4
67 °FClear.5 mph45%29.78 "Hg10 mi
10:53 PM66 °FClear.No wind39%29.78 "Hg10 mi
9:53 PM71 °FClear.3 mph35%29.78 "Hg10 mi
8:53 PM79 °FSunny.5 mph26%29.77 "Hg10 mi
7:53 PM83 °FSunny.10 mph23%29.76 "Hg10 mi
6:53 PM87 °FSunny.16 mph18%29.75 "Hg10 mi
5:53 PM88 °FSunny.13 mph18%29.76 "Hg10 mi
4:53 PM88 °FSunny.12 mph18%29.78 "Hg10 mi
3:53 PM89 °FSunny.16 mph19%29.80 "Hg10 mi
2:53 PM88 °FSunny.9 mph20%29.82 "Hg10 mi
1:53 PM85 °FSunny.6 mph23%29.83 "Hg10 mi
12:53 PM85 °FSunny.12 mph25%29.85 "Hg10 mi
11:53 AM82 °FSunny.13 mph27%29.85 "Hg10 mi
10:53 AM80 °FSunny.10 mph29%29.87 "Hg10 mi
9:53 AM78 °FSunny.14 mph31%29.86 "Hg10 mi
8:53 AM74 °FSunny.9 mph37%29.87 "Hg10 mi
7:53 AM72 °FSunny.8 mph40%29.86 "Hg10 mi
6:53 AM70 °FSunny.9 mph42%29.85 "Hg10 mi
5:53 AM71 °FClear.5 mph41%29.83 "Hg10 mi
4:53 AM68 °FClear.No wind49%29.82 "Hg10 mi
Weather by CustomWeather, © 2015

See weather overviewHow to use our weather pages